�������l�o���
Date,Time,MP-1(��Sv/h),MP-2(��Sv/h),MP-3(��Sv/h),MP-4(��Sv/h),MP-5(��Sv/h),MP-6(��Sv/h),MP-7(��Sv/h),MP-8(��Sv/h),����,����(m/s),���J
2020/09/27,00:00,0.649,0.918,0.589,1.137,0.794,0.379,0.659,0.624,�k�k��,3.2,�L
2020/09/27,00:10,0.649,0.913,0.590,1.135,0.794,0.379,0.659,0.624,�k��,4.9,�L
2020/09/27,00:20,0.650,0.911,0.588,1.133,0.791,0.378,0.655,0.626,�k,4.4,�L
2020/09/27,00:30,0.648,0.909,0.589,1.131,0.791,0.378,0.656,0.623,�k��,3.9,�L
2020/09/27,00:40,0.645,0.911,0.587,1.131,0.791,0.378,0.655,0.621,�k��,4.2,�L
2020/09/27,00:50,0.645,0.908,0.587,1.132,0.793,0.377,0.656,0.622,�k�k��,4.4,�L
2020/09/27,01:00,0.646,0.908,0.586,1.130,0.792,0.376,0.656,0.622,�k�k��,4.9,�L
2020/09/27,01:10,0.648,0.908,0.586,1.132,0.791,0.378,0.655,0.623,�k�k��,4.1,�L
2020/09/27,01:20,0.646,0.908,0.588,1.131,0.791,0.378,0.655,0.622,�k�k��,4.6,�L
2020/09/27,01:30,0.646,0.907,0.585,1.131,0.793,0.376,0.654,0.623,�k�k��,5.4,�L
2020/09/27,01:40,0.643,0.905,0.586,1.129,0.791,0.377,0.656,0.621,�k�k��,4.4,�L
2020/09/27,01:50,0.641,0.905,0.584,1.126,0.790,0.378,0.655,0.621,�k�k��,3.7,�L
2020/09/27,02:00,0.643,0.904,0.584,1.128,0.791,0.378,0.654,0.621,�k��,3.6,�L
2020/09/27,02:10,0.644,0.907,0.584,1.127,0.791,0.379,0.656,0.620,�k��,3.5,�L
2020/09/27,02:20,0.644,0.906,0.584,1.128,0.790,0.376,0.654,0.622,�k�k��,3.9,�L
2020/09/27,02:30,0.645,0.906,0.586,1.128,0.790,0.377,0.656,0.622,�k,3.5,�L
2020/09/27,02:40,0.643,0.906,0.586,1.125,0.792,0.378,0.655,0.621,�k�k��,4.1,�L
2020/09/27,02:50,0.644,0.907,0.585,1.128,0.791,0.377,0.655,0.622,�k�k��,3.9,�L
2020/09/27,03:00,0.642,0.905,0.586,1.128,0.790,0.378,0.655,0.622,�k�k��,4.3,�L
2020/09/27,03:10,0.642,0.908,0.584,1.128,0.792,0.379,0.654,0.625,�k�k��,4.3,�L
2020/09/27,03:20,0.642,0.906,0.584,1.127,0.792,0.379,0.655,0.624,�k�k��,4.1,�L
2020/09/27,03:30,0.641,0.906,0.584,1.126,0.792,0.378,0.653,0.623,�k,3.2,�L
2020/09/27,03:40,0.642,0.905,0.583,1.128,0.792,0.377,0.654,0.623,�k�k��,3.3,�L
2020/09/27,03:50,0.641,0.905,0.584,1.125,0.792,0.378,0.654,0.623,�k�k��,3.2,�L
2020/09/27,04:00,0.643,0.907,0.585,1.124,0.790,0.378,0.652,0.620,�k��,2.9,�L
2020/09/27,04:10,0.641,0.904,0.583,1.126,0.790,0.378,0.651,0.621,�k��,3.2,�L
2020/09/27,04:20,0.641,0.906,0.584,1.124,0.790,0.377,0.652,0.618,�k��,3.4,�L
2020/09/27,04:30,0.641,0.904,0.584,1.119,0.788,0.378,0.654,0.617,�k��,3.2,�L
2020/09/27,04:40,0.639,0.901,0.582,1.118,0.790,0.378,0.651,0.618,�k��,4.0,�L
2020/09/27,04:50,0.639,0.904,0.583,1.118,0.788,0.376,0.651,0.616,�k��,4.3,�L
2020/09/27,05:00,0.639,0.902,0.583,1.122,0.787,0.376,0.652,0.616,�k��,4.9,�L
2020/09/27,05:10,0.639,0.902,0.583,1.117,0.788,0.376,0.651,0.618,�k�k��,4.3,�L
2020/09/27,05:20,0.641,0.901,0.584,1.121,0.789,0.377,0.649,0.618,�k�k��,4.6,�L
2020/09/27,05:30,0.642,0.902,0.584,1.121,0.789,0.375,0.650,0.616,�k�k��,4.2,��
2020/09/27,05:40,0.640,0.903,0.583,1.121,0.791,0.377,0.651,0.620,�k�k��,3.4,��
2020/09/27,05:50,0.642,0.906,0.583,1.119,0.789,0.377,0.650,0.620,�k,3.2,�L
2020/09/27,06:00,0.641,0.904,0.583,1.120,0.790,0.377,0.652,0.620,�k,2.9,�L
2020/09/27,06:10,0.640,0.906,0.585,1.122,0.791,0.376,0.652,0.619,�k�k��,2.8,��
2020/09/27,06:20,0.641,0.904,0.583,1.121,0.791,0.378,0.652,0.619,�k�k��,2.5,��
2020/09/27,06:30,0.639,0.907,0.587,1.122,0.792,0.377,0.654,0.620,�k�k��,2.5,��
2020/09/27,06:40,0.643,0.907,0.584,1.122,0.792,0.377,0.654,0.621,�k�k��,2.6,��
2020/09/27,06:50,0.642,0.906,0.585,1.122,0.792,0.377,0.653,0.620,�k�k��,2.1,�L
2020/09/27,07:00,0.641,0.906,0.585,1.123,0.793,0.376,0.652,0.621,�k,1.7,��
2020/09/27,07:10,0.641,0.906,0.585,1.123,0.790,0.376,0.655,0.620,���쓌,1.7,��
2020/09/27,07:20,0.642,0.904,0.584,1.124,0.792,0.378,0.651,0.619,�k�k��,2.8,��
2020/09/27,07:30,0.642,0.907,0.585,1.125,0.793,0.377,0.654,0.620,�k�k��,3.0,��
2020/09/27,07:40,0.641,0.905,0.586,1.123,0.792,0.378,0.655,0.620,�k�k��,3.5,�L
2020/09/27,07:50,0.641,0.907,0.586,1.126,0.792,0.376,0.653,0.619,�k�k��,3.4,�L
2020/09/27,08:00,0.642,0.906,0.584,1.126,0.790,0.377,0.652,0.620,�k�k��,3.6,�L
2020/09/27,08:10,0.640,0.907,0.585,1.123,0.791,0.377,0.653,0.619,�k�k��,2.9,�L
2020/09/27,08:20,0.641,0.907,0.584,1.123,0.789,0.377,0.652,0.619,�k�k��,2.5,�L
2020/09/27,08:30,0.641,0.905,0.583,1.124,0.790,0.376,0.651,0.618,�k,1.2,�L
2020/09/27,08:40,0.641,0.905,0.585,1.124,0.791,0.376,0.652,0.618,�k�k��,0.9,�L
2020/09/27,08:50,0.642,0.905,0.585,1.120,0.792,0.376,0.653,0.618,�k��,1.5,�L
2020/09/27,09:00,0.642,0.904,0.586,1.120,0.789,0.376,0.653,0.617,�k�k��,1.7,��
2020/09/27,09:10,0.642,0.905,0.587,1.121,0.790,0.377,0.653,0.618,�k�k��,1.5,��
2020/09/27,09:20,0.641,0.906,0.584,1.125,0.790,0.378,0.653,0.619,�k,1.2,��
2020/09/27,09:30,0.644,0.901,0.584,1.123,0.790,0.377,0.653,0.620,�k,1.5,�L
2020/09/27,09:40,0.642,0.903,0.584,1.123,0.791,0.378,0.652,0.619,�k�k��,1.2,��
2020/09/27,09:50,0.643,0.900,0.583,1.123,0.790,0.376,0.655,0.620,�k,1.5,�L
2020/09/27,10:00,0.642,0.902,0.586,1.124,0.791,0.377,0.654,0.618,�k�k��,1.5,�L
2020/09/27,10:10,0.645,0.905,0.584,1.123,0.793,0.377,0.654,0.618,�k�k��,1.5,��
2020/09/27,10:20,0.642,0.904,0.583,1.121,0.791,0.377,0.651,0.617,��,0.8,��
2020/09/27,10:30,0.643,0.906,0.585,1.122,0.792,0.377,0.652,0.617,���쓌,1.5,�L
2020/09/27,10:40,0.644,0.904,0.584,1.124,0.792,0.377,0.653,0.616,��,1.7,�L
2020/09/27,10:50,0.643,0.907,0.585,1.122,0.792,0.377,0.653,0.619,���쓌,1.7,��
2020/09/27,11:00,0.642,0.902,0.586,1.123,0.791,0.377,0.653,0.619,�쓌,2.0,�L
2020/09/27,11:10,0.641,0.904,0.585,1.122,0.793,0.376,0.653,0.619,�쓌,2.0,�L
2020/09/27,11:20,0.641,0.904,0.584,1.122,0.791,0.376,0.655,0.619,�쓌,2.8,�L
2020/09/27,11:30,0.643,0.906,0.585,1.121,0.793,0.376,0.656,0.617,�쓌,2.3,��
2020/09/27,11:40,0.643,0.905,0.586,1.122,0.793,0.378,0.655,0.620,��쓌,2.6,��
2020/09/27,11:50,0.644,0.905,0.586,1.123,0.794,0.376,0.656,0.619,��쓌,2.3,��
2020/09/27,12:00,0.645,0.906,0.586,1.125,0.794,0.378,0.656,0.619,�쓌,1.7,��
2020/09/27,12:10,0.643,0.907,0.586,1.125,0.793,0.377,0.656,0.619,�쓌,1.9,��
2020/09/27,12:20,0.643,0.909,0.586,1.124,0.793,0.377,0.654,0.620,�쓌,2.0,��
2020/09/27,12:30,0.645,0.909,0.586,1.125,0.794,0.375,0.655,0.618,�쓌,1.4,��
2020/09/27,12:40,0.641,0.908,0.584,1.126,0.794,0.377,0.655,0.618,��쓌,2.2,��
2020/09/27,12:50,0.643,0.910,0.586,1.125,0.794,0.378,0.656,0.619,���쓌,1.7,��
2020/09/27,13:00,0.643,0.909,0.584,1.125,0.795,0.378,0.659,0.620,���쓌,2.3,��
2020/09/27,13:10,0.645,0.910,0.585,1.128,0.796,0.376,0.658,0.620,���쓌,1.7,��
2020/09/27,13:20,0.644,0.911,0.585,1.125,0.796,0.377,0.656,0.619,���쓌,1.2,��
2020/09/27,13:30,0.645,0.911,0.586,1.125,0.794,0.377,0.657,0.618,��쓌,2.3,��
2020/09/27,13:40,0.644,0.911,0.585,1.125,0.797,0.377,0.657,0.619,���쓌,1.7,��
2020/09/27,13:50,0.645,0.911,0.586,1.127,0.796,0.378,0.657,0.619,���쓌,2.2,��
2020/09/27,14:00,0.645,0.912,0.587,1.128,0.796,0.377,0.657,0.619,���쓌,2.6,��
2020/09/27,14:10,0.646,0.912,0.585,1.129,0.796,0.378,0.655,0.619,�쓌,2.8,��
2020/09/27,14:20,0.645,0.913,0.584,1.129,0.798,0.378,0.658,0.619,��쓌,2.2,��
2020/09/27,14:30,0.645,0.912,0.587,1.129,0.797,0.377,0.657,0.619,��쓌,2.6,��
2020/09/27,14:40,0.643,0.912,0.587,1.128,0.796,0.377,0.658,0.621,��,1.5,��
2020/09/27,14:50,0.646,0.914,0.586,1.127,0.799,0.377,0.657,0.622,�쓌,1.1,��
2020/09/27,15:00,0.646,0.913,0.586,1.129,0.799,0.378,0.656,0.620,�쓌,1.5,��
2020/09/27,15:10,0.646,0.915,0.587,1.130,0.797,0.379,0.658,0.620,��쓌,1.7,��
2020/09/27,15:20,0.646,0.914,0.587,1.127,0.798,0.378,0.657,0.621,���쓌,2.0,��
2020/09/27,15:30,0.645,0.916,0.588,1.127,0.797,0.377,0.658,0.621,���쓌,1.2,��
2020/09/27,15:40,0.646,0.916,0.585,1.127,0.800,0.378,0.659,0.620,�쓌,1.7,��
2020/09/27,15:50,0.645,0.917,0.586,1.129,0.799,0.377,0.657,0.620,��,1.7,��
2020/09/27,16:00,0.647,0.917,0.587,1.131,0.798,0.377,0.658,0.621,��,1.5,��
2020/09/27,16:10,0.645,0.914,0.588,1.128,0.798,0.377,0.659,0.622,���쓌,1.4,��
2020/09/27,16:20,0.647,0.917,0.587,1.132,0.800,0.378,0.658,0.622,�k��,1.5,��
2020/09/27,16:30,0.645,0.918,0.590,1.131,0.799,0.378,0.658,0.622,���k��,1.7,��
2020/09/27,16:40,0.648,0.918,0.587,1.129,0.800,0.377,0.658,0.621,���쓌,1.2,��
2020/09/27,16:50,0.645,0.918,0.590,1.129,0.797,0.378,0.658,0.622,���쓌,1.5,��
2020/09/27,17:00,0.646,0.921,0.589,1.131,0.800,0.378,0.658,0.622,��,1.2,��
2020/09/27,17:10,0.649,0.919,0.589,1.130,0.800,0.378,0.657,0.622,�쓌,1.1,��
2020/09/27,17:20,0.648,0.918,0.590,1.129,0.800,0.380,0.659,0.622,�쓌,1.5,��
2020/09/27,17:30,0.651,0.920,0.590,1.132,0.801,0.379,0.659,0.622,��쓌,1.2,��
2020/09/27,17:40,0.648,0.920,0.592,1.132,0.802,0.379,0.657,0.621,��,1.1,��
2020/09/27,17:50,0.648,0.920,0.590,1.132,0.802,0.380,0.657,0.623,��쐼,2.0,��
2020/09/27,18:00,0.649,0.921,0.591,1.130,0.801,0.378,0.657,0.623,��,1.9,��
2020/09/27,18:10,0.650,0.920,0.593,1.130,0.803,0.377,0.656,0.623,��,2.0,�L
2020/09/27,18:20,0.649,0.921,0.591,1.131,0.802,0.379,0.657,0.622,��쐼,1.7,�L
2020/09/27,18:30,0.649,0.922,0.592,1.133,0.804,0.378,0.659,0.623,��쐼,1.9,��
2020/09/27,18:40,0.650,0.922,0.592,1.131,0.804,0.379,0.660,0.625,��쐼,2.3,��
2020/09/27,18:50,0.651,0.922,0.590,1.132,0.804,0.379,0.658,0.625,�쐼,2.5,��
2020/09/27,19:00,0.649,0.921,0.591,1.133,0.805,0.379,0.658,0.625,��쐼,2.9,��
2020/09/27,19:10,0.648,0.920,0.590,1.132,0.805,0.379,0.659,0.624,��쐼,3.3,��
2020/09/27,19:20,0.649,0.922,0.591,1.131,0.805,0.378,0.660,0.624,��쐼,2.0,��
2020/09/27,19:30,0.651,0.920,0.591,1.134,0.804,0.380,0.660,0.623,��쐼,2.5,��
2020/09/27,19:40,0.651,0.920,0.591,1.131,0.803,0.379,0.659,0.624,��쐼,1.2,��
2020/09/27,19:50,0.650,0.921,0.591,1.132,0.803,0.381,0.660,0.625,��,2.0,��
2020/09/27,20:00,0.650,0.919,0.591,1.133,0.802,0.380,0.660,0.624,��,0.9,��
2020/09/27,20:10,0.652,0.922,0.593,1.131,0.804,0.380,0.661,0.625,��,2.3,��
2020/09/27,20:20,0.649,0.920,0.591,1.131,0.804,0.381,0.662,0.623,��쐼,0.9,��
2020/09/27,20:30,0.649,0.919,0.592,1.132,0.803,0.381,0.660,0.623,�쐼,0.9,��
2020/09/27,20:40,0.650,0.919,0.591,1.132,0.803,0.380,0.660,0.623,��,1.4,��
2020/09/27,20:50,0.649,0.921,0.591,1.134,0.805,0.380,0.660,0.625,��쓌,2.0,��
2020/09/27,21:00,0.648,0.919,0.591,1.131,0.804,0.380,0.660,0.625,��,1.7,��
2020/09/27,21:10,0.647,0.918,0.590,1.132,0.803,0.381,0.660,0.624,��쐼,2.6,��
2020/09/27,21:20,0.649,0.921,0.591,1.134,0.803,0.381,0.659,0.624,��쐼,2.6,��
2020/09/27,21:30,0.650,0.920,0.590,1.133,0.803,0.382,0.661,0.624,��쐼,1.4,��
2020/09/27,21:40,0.650,0.920,0.592,1.134,0.805,0.381,0.661,0.624,���쐼,1.4,��
2020/09/27,21:50,0.650,0.921,0.591,1.133,0.804,0.382,0.661,0.625,���쐼,1.4,��
2020/09/27,22:00,0.649,0.920,0.590,1.136,0.804,0.382,0.662,0.623,�쐼,1.5,��
2020/09/27,22:10,0.648,0.919,0.590,1.132,0.805,0.380,0.660,0.623,�쐼,0.9,��
2020/09/27,22:20,0.648,0.919,0.591,1.132,0.804,0.382,0.660,0.626,�쐼,0.9,��
2020/09/27,22:30,0.648,0.920,0.591,1.133,0.805,0.381,0.660,0.624,��,1.7,��
2020/09/27,22:40,0.650,0.918,0.591,1.133,0.803,0.380,0.661,0.623,��,3.0,��
2020/09/27,22:50,0.649,0.921,0.591,1.131,0.805,0.381,0.662,0.624,��,2.2,��
2020/09/27,23:00,0.649,0.920,0.591,1.136,0.804,0.381,0.661,0.624,���k��,1.1,��
2020/09/27,23:10,0.648,0.919,0.592,1.134,0.804,0.381,0.662,0.623,���k��,1.2,��
2020/09/27,23:20,0.649,0.918,0.591,1.135,0.803,0.380,0.660,0.624,�k�k��,0.9,��
2020/09/27,23:30,0.649,0.919,0.590,1.132,0.804,0.382,0.660,0.624,�k��,2.3,��
2020/09/27,23:40,0.649,0.918,0.591,1.131,0.803,0.381,0.662,0.624,�k��,2.6,��
2020/09/27,23:50,0.648,0.920,0.591,1.132,0.805,0.381,0.661,0.625,���k��,3.3,��
